Weather History for Washington, NC

Change the Weather History Date:

Wednesday, April 3, 2013

  Actual Average (KEWN) Record (KEWN)
Temperature  
Mean Temperature 50 °F 59 °F  
Max Temperature 60 °F 70 °F 89 °F (1963)
Min Temperature 40 °F 47 °F 31 °F (1992)
Degree Days  
Heating Degree Days 15 8  
Month to date heating degree days 24  
Since 1 July heating degree days 2539  
Cooling Degree Days 0 1  
Month to date cooling degree days 3  
Year to date cooling degree days 17  
Moisture  
Dew Point 20 °F    
Average Humidity 44    
Maximum Humidity 81    
Minimum Humidity 6    
Precipitation  
Precipitation 0.00 in 0.12 in 1.26 in (1975)
Month to date precipitation 0.35  
Year to date precipitation 12.42  
Snow  
Snow 0.00 in - - ()
Month to date snowfall  
Since 1 July snowfall  
Snow Depth -    
Sea Level Pressure  
Sea Level Pressure 30.23 in    
Wind  
Wind Speed 3 mph (NNE)    
Max Wind Speed 12 mph    
Max Gust Speed 21 mph    
Visibility 10 miles    
Events      
T = Trace of Precipitation, MM = Missing Value Source: NWS Daily Summary

Daily Weather History Graph

Daily Weather History Graph

Search for Another Location

Airport:

Trip Planner

Search our weather history database for the weather conditions in past years. The results will help you decide how hot, cold, wet, or windy it might be!

Date:

Astronomy

Apr. 03, 2013 Rise Set
Actual Time 6:51 AM EDT 7:31 PM EDT
Civil Twilight 6:25 AM EDT 7:57 PM EDT
Nautical Twilight 5:55 AM EDT 8:27 PM EDT
Astronomical Twilight 5:24 AM EDT 8:59 PM EDT
Moon 2:17 AM EDT (4/3) 12:54 PM EDT (4/3)
Length of Visible Light 13h 31m
Length of Day
12h 40m
Last Quarter, 45% of the Moon is Illuminated
Apr 3
Last Quarter
Apr 10
New
Apr 18
First Quarter
Apr 25
Full
May 2
Last Quarter

Hourly Weather History & Observations

Time (EDT) Temp. Windchill Dew Point Humidity Pressure Visibility Wind Dir Wind Speed Gust Speed Precip Events Conditions
12:15 AM 42.8 °F - 33.4 °F 70% 30.14 in 10.0 mi Calm Calm - N/A   Clear
12:35 AM 42.6 °F - 34.0 °F 71% 30.14 in 10.0 mi Calm Calm - N/A   Clear
12:55 AM 40.1 °F - 33.3 °F 77% 30.14 in 10.0 mi Calm Calm - N/A   Clear
1:15 AM 40.3 °F - 33.6 °F 77% 30.14 in 10.0 mi Calm Calm - N/A   Clear
1:35 AM 40.1 °F 36.9 °F 34.7 °F 81% 30.15 in 10.0 mi North 4.6 mph - N/A   Scattered Clouds
1:55 AM 40.1 °F - 34.3 °F 80% 30.16 in 10.0 mi Calm Calm - N/A   Mostly Cloudy
2:15 AM 40.5 °F - 34.7 °F 80% 30.16 in 10.0 mi Calm Calm - N/A   Mostly Cloudy
2:35 AM 40.6 °F - 35.1 °F 80% 30.16 in 10.0 mi Calm Calm - N/A   Mostly Cloudy
2:55 AM 42.8 °F - 36.5 °F 78% 30.17 in 10.0 mi Calm Calm - N/A   Overcast
3:15 AM 43.9 °F - 37.4 °F 78% 30.17 in 10.0 mi Calm Calm - N/A   Overcast
3:35 AM 43.9 °F - 37.6 °F 78% 30.17 in 10.0 mi Calm Calm - N/A   Overcast
3:55 AM 43.9 °F - 37.4 °F 78% 30.17 in 10.0 mi Calm Calm - N/A   Overcast
4:15 AM 43.0 °F - 37.6 °F 81% 30.17 in 10.0 mi Calm Calm - N/A   Overcast
4:35 AM 45.1 °F 42.0 °F 33.8 °F 65% 30.17 in 10.0 mi North 5.8 mph - N/A   Overcast
4:55 AM 43.9 °F 38.8 °F 32.0 °F 63% 30.17 in 10.0 mi North 9.2 mph - N/A   Overcast
5:15 AM 43.9 °F 39.3 °F 30.6 °F 59% 30.18 in 10.0 mi North 8.1 mph - N/A   Overcast
5:35 AM 43.9 °F 39.3 °F 30.6 °F 59% 30.18 in 10.0 mi North 8.1 mph - N/A   Overcast
5:55 AM 43.9 °F 37.9 °F 31.3 °F 61% 30.19 in 10.0 mi NNE 11.5 mph - N/A   Overcast
6:15 AM 43.9 °F 38.3 °F 31.5 °F 62% 30.20 in 10.0 mi NNE 10.4 mph - N/A   Overcast
6:35 AM 43.9 °F 38.8 °F 30.2 °F 59% 30.21 in 10.0 mi NNE 9.2 mph - N/A   Overcast
6:55 AM 43.9 °F 38.8 °F 28.9 °F 56% 30.21 in 10.0 mi NNE 9.2 mph - N/A   Overcast
7:15 AM 43.9 °F 39.3 °F 27.0 °F 51% 30.22 in 10.0 mi NNE 8.1 mph - N/A   Overcast
7:35 AM 43.9 °F 39.9 °F 25.0 °F 47% 30.22 in 10.0 mi NE 6.9 mph - N/A   Overcast
7:55 AM 43.9 °F 39.9 °F 24.4 °F 46% 30.24 in 10.0 mi NNE 6.9 mph - N/A   Overcast
8:15 AM 44.2 °F 41.8 °F 22.8 °F 43% 30.25 in 10.0 mi NNE 4.6 mph - N/A   Overcast
8:35 AM 45.1 °F 42.0 °F 23.0 °F 42% 30.27 in 10.0 mi NNE 5.8 mph - N/A   Overcast
8:55 AM 45.1 °F 42.8 °F 23.2 °F 42% 30.27 in 10.0 mi NNE 4.6 mph - N/A   Overcast
9:15 AM 45.5 °F 41.8 °F 22.8 °F 41% 30.27 in 10.0 mi NNE 6.9 mph - N/A   Overcast
9:35 AM 45.9 °F 42.3 °F 23.0 °F 41% 30.27 in 10.0 mi NE 6.9 mph - N/A   Overcast
10:15 AM 46.6 °F - 20.5 °F 36% 30.28 in 10.0 mi NE 9.2 mph - N/A   Overcast
10:35 AM 48.0 °F - 21.2 °F 35% 30.29 in 10.0 mi NNE 6.9 mph - N/A   Overcast
10:55 AM 48.4 °F - 18.7 °F 31% 30.28 in 10.0 mi NE 9.2 mph - N/A   Overcast
11:15 AM 50.2 °F - 17.2 °F 27% 30.28 in 10.0 mi NE 6.9 mph - N/A   Overcast
11:35 AM 51.6 °F - 16.7 °F 25% 30.27 in 10.0 mi ENE 5.8 mph - N/A   Mostly Cloudy
12:15 PM 53.6 °F - -2.2 °F 10% 30.26 in 10.0 mi North 5.8 mph - N/A   Scattered Clouds
12:35 PM 54.3 °F - 1.0 °F 11% 30.24 in 10.0 mi NNE 5.8 mph - N/A   Scattered Clouds
12:55 PM 57.2 °F - -1.5 °F 9% 30.24 in 10.0 mi North 6.9 mph 20.7 mph N/A   Scattered Clouds
1:15 PM 58.1 °F - -4.4 °F 8% 30.24 in 10.0 mi NNE 8.1 mph - N/A   Scattered Clouds
1:35 PM 58.1 °F - -6.0 °F 7% 30.24 in 10.0 mi Calm Calm - N/A   Mostly Cloudy
1:55 PM 57.2 °F - -5.6 °F 8% 30.24 in 10.0 mi ESE 3.5 mph - N/A   Mostly Cloudy
2:15 PM 58.1 °F - -8.3 °F 6% 30.22 in 10.0 mi Calm Calm - N/A   Scattered Clouds
2:35 PM 58.5 °F - -8.5 °F 6% 30.22 in 10.0 mi Calm Calm - N/A   Clear
2:55 PM 58.5 °F - -9.9 °F 6% 30.21 in 10.0 mi West 4.6 mph - N/A   Clear
3:15 PM 58.5 °F - -11.2 °F 6% 30.21 in 10.0 mi West 3.5 mph - N/A   Clear
3:55 PM 60.3 °F - -6.7 °F 6% 30.20 in 10.0 mi SW 5.8 mph - N/A   Clear
4:15 PM 59.9 °F - -8.7 °F 6% 30.20 in 10.0 mi Calm Calm - N/A   Clear
4:35 PM 60.4 °F - -8.1 °F 6% 30.20 in 10.0 mi Calm Calm - N/A   Clear
4:55 PM 59.7 °F - -5.3 °F 7% 30.20 in 10.0 mi NW 3.5 mph - N/A   Clear
5:15 PM 60.4 °F - -6.7 °F 6% 30.21 in 10.0 mi Calm Calm - N/A   Clear
5:35 PM 60.4 °F - -8.1 °F 6% 30.21 in 10.0 mi WNW 8.1 mph - N/A   Clear
5:55 PM 59.5 °F - -7.6 °F 6% 30.21 in 10.0 mi WNW 5.8 mph - N/A   Clear
6:15 PM 59.2 °F - -6.0 °F 7% 30.22 in 10.0 mi WNW 6.9 mph - N/A   Clear
6:55 PM 58.1 °F - -4.9 °F 8% 30.23 in 10.0 mi NNW 3.5 mph - N/A   Clear
7:15 PM 58.1 °F - 6.8 °F 13% 30.24 in 10.0 mi NNW 3.5 mph - N/A   Clear
7:35 PM 55.4 °F - 8.8 °F 16% 30.24 in 10.0 mi NNW 3.5 mph - N/A   Clear
8:15 PM 52.2 °F - 36.1 °F 54% 30.24 in 10.0 mi East 5.8 mph - N/A   Clear
8:35 PM 50.2 °F - 36.1 °F 59% 30.26 in 10.0 mi ESE 3.5 mph - N/A   Clear
8:55 PM 48.7 °F - 35.6 °F 60% 30.27 in 10.0 mi Calm Calm - N/A   Clear
9:15 PM 48.0 °F - 35.6 °F 62% 30.28 in 10.0 mi East 3.5 mph - N/A   Clear
9:35 PM 47.7 °F - 36.0 °F 64% 30.29 in 10.0 mi ENE 4.6 mph - N/A   Clear
9:55 PM 46.4 °F 44.3 °F 36.5 °F 68% 30.30 in 10.0 mi East 4.6 mph - N/A   Clear
10:15 PM 45.3 °F 43.0 °F 35.8 °F 69% 30.31 in 10.0 mi ESE 4.6 mph - N/A   Clear
10:35 PM 45.1 °F 42.0 °F 34.5 °F 66% 30.31 in 10.0 mi ESE 5.8 mph - N/A   Clear
10:55 PM 45.0 °F 42.6 °F 34.0 °F 65% 30.32 in 10.0 mi ESE 4.6 mph - N/A   Clear
11:15 PM 44.2 °F 42.7 °F 33.3 °F 65% 30.32 in 10.0 mi East 3.5 mph - N/A   Clear
11:35 PM 45.0 °F - 33.3 °F 64% 30.32 in 10.0 mi Calm Calm - N/A   Clear
11:55 PM 44.4 °F - 32.7 °F 64% 30.32 in 10.0 mi Calm Calm - N/A   Clear